カタログに戻る

STARLINK-3374

運用中通信VLEO
NORAD 51112·PAYLOAD·🇺🇸 United States

打ち上げ Jan 19, 2022 から Cape Canaveral Space Force Station

Loading…

次のパス (今後24時間)

TLE

最新Source: CelesTrak SupGP

元期: Sep 14, 2026, 20:26 UTC

1 51112C 22005J   26257.85187500 -.00031808  00000+0 -93972-3 0  2576
2 51112  53.1576 152.1876 0001278  95.3839 169.2759 15.34407914    12

AllMySatでSTARLINK-3374をリアルタイム追跡

Download on the App Store